Tracking 31027 objects as of 19-Jul-2025
HD Live streaming from Space Station
objects crossing your sky now

THORAD DELTA 1 DEB

Track THORAD DELTA 1 DEB now!
10-day predictions


NORAD ID: 8151
Int'l Code: 1974-089R
Perigee: 1,084.6 km
Apogee: 1,602.9 km
Inclination: 101.8 °
Period: 112.4 minutes
Semi major axis: 7714 km
RCS: 0.0604 m2 (small)
Launch date: November 15, 1974
Source: United States (US)
Launch site: AIR FORCE WESTERN TEST RANGE (AFWTR)

Note: This is SATELLITE DEBRIS
Your satellite tracking list
NOAA 16 DEB
Track 1 satellite(s)




NASA's NSSDC Master Catalog

Two Line Element Set (TLE):
1 08151U 74089R   25199.25439148 -.00000019  00000-0  10391-3 0  9993
2 08151 101.7703 295.1838 0335926   4.7374  55.8482 12.81207982366024
Source of the keplerian elements: AFSPC